User: anonymous
Location: Newsoms
(36.6240°N, 77.1250°W)
Time: 22:12:14
(UTC-04:00)
Language:

BREEZE-M DEB (TANK) - Orbit

View from above orbital plane
View from above orbital plane
View from above satellite
View from above satellite

Ground track
Ground track

The orbit data is extracted from the following two-line orbital elements,

1 29649U 06056B   14241.16779918  .00018290  00000-0  23235-2 0  9938
2 29649 049.4888 258.2628 5428358 245.8761 049.4857 04.94490316136865
Epoch (UTC): 29 August 2014 04:01:37
Eccentricity: 0.5428358
inclination: 49.4888°
perigee height: 275 km
apogee height: 16075 km
right ascension of ascending node: 258.2628°
argument of perigee: 245.8761°
revolutions per day: 4.94490316
mean anomaly at epoch: 49.4857°
orbit number at epoch: 13686

The dashed part of the orbit path shows where the satellite is in the earth's shadow,  

DLR